| time (UTC) | temp F | wind direction | speed knots | gust knots | rain 1hr in | rain 24hr in | rain mn in | humidity % | barometer mb |
| 20260507122357 | 50 | 102 | 2.6 | 6.1 | 0.00 | 0.00 | 0.00 | 74 | 1015.0 |
| 20260507121857 | 50 | 100 | 1.7 | 7.0 | 0.00 | 0.00 | 0.00 | 74 | 1015.0 |
| 20260507121357 | 50 | 92 | 2.6 | 5.2 | 0.00 | 0.00 | 0.00 | 74 | 1015.0 |
| 20260507120857 | 50 | 76 | 1.7 | 4.3 | 0.00 | 0.00 | 0.00 | 75 | 1015.1 |
| 20260507115857 | 50 | 91 | 2.6 | 5.2 | 0.00 | 0.00 | 0.00 | 75 | 1015.2 |
| 20260507115357 | 49 | 84 | 1.7 | 4.3 | 0.00 | 0.00 | 0.00 | 76 | 1015.2 |
| 20260507114857 | 49 | 94 | 2.6 | 5.2 | 0.00 | 0.00 | 0.00 | 76 | 1015.2 |
| 20260507112857 | 49 | 139 | 1.7 | 2.6 | 0.00 | 0.00 | 0.00 | 77 | 1015.3 |
| 20260507112357 | 49 | 113 | 1.7 | 6.1 | 0.00 | 0.00 | 0.00 | 77 | 1015.3 |
| 20260507111857 | 49 | 135 | 0.9 | 2.6 | 0.00 | 0.00 | 0.00 | 77 | 1015.3 |
| 20260507111357 | 49 | 111 | 2.6 | 6.1 | 0.00 | 0.00 | 0.00 | 76 | 1015.3 |
| 20260507110857 | 48 | 114 | 3.5 | 6.1 | 0.00 | 0.00 | 0.00 | 76 | 1015.4 |
| 20260507110358 | 48 | 122 | 2.6 | 6.1 | 0.00 | 0.00 | 0.00 | 77 | 1015.4 |
| 20260507105857 | 48 | 140 | 2.6 | 5.2 | 0.00 | 0.00 | 0.00 | 76 | 1015.4 |
| 20260507104858 | 48 | 144 | 2.6 | 6.1 | 0.00 | 0.00 | 0.00 | 76 | 1015.5 |
| 20260507104357 | 48 | 120 | 3.5 | 7.0 | 0.00 | 0.00 | 0.00 | 76 | 1015.5 |
| 20260507103858 | 48 | 103 | 2.6 | 7.0 | 0.00 | 0.00 | 0.00 | 78 | 1015.5 |
| 20260507103401 | 48 | 134 | 3.5 | 6.1 | 0.00 | 0.00 | 0.00 | 78 | 1015.4 |
| 20260507102900 | 48 | 132 | 3.5 | 7.0 | 0.00 | 0.00 | 0.00 | 78 | 1015.5 |
| 20260507102357 | 48 | 149 | 2.6 | 6.1 | 0.00 | 0.00 | 0.00 | 79 | 1015.4 |
| 20260507101357 | 48 | 101 | 4.3 | 7.0 | 0.00 | 0.00 | 0.00 | 79 | 1015.3 |
| 20260507100857 | 48 | 106 | 4.3 | 7.0 | 0.00 | 0.00 | 0.00 | 80 | 1015.4 |
| 20260507100357 | 48 | 92 | 1.7 | 7.0 | 0.00 | 0.00 | 0.00 | 80 | 1015.4 |
| 20260507095857 | 48 | 85 | 2.6 | 6.1 | 0.00 | 0.00 | 0.00 | 81 | 1015.4 |
| 20260507094857 | 47 | 98 | 5.2 | 10.4 | 0.00 | 0.00 | 0.00 | 81 | 1015.5 |
| 20260507094356 | 47 | 103 | 4.3 | 7.0 | 0.00 | 0.00 | 0.00 | 81 | 1015.5 |
| 20260507093357 | 47 | 93 | 2.6 | 8.7 | 0.00 | 0.00 | 0.00 | 82 | 1015.4 |
| 20260507092857 | 47 | 106 | 2.6 | 7.0 | 0.00 | 0.00 | 0.00 | 82 | 1015.3 |
| 20260507092357 | 46 | 91 | 3.5 | 6.1 | 0.00 | 0.00 | 0.00 | 82 | 1015.3 |
| 20260507091859 | 46 | 105 | 4.3 | 7.0 | 0.00 | 0.00 | 0.00 | 82 | 1015.3 |
| 20260507090857 | 46 | 84 | 2.6 | 4.3 | 0.00 | 0.00 | 0.00 | 83 | 1015.3 |
| 20260507090358 | 46 | 78 | 2.6 | 5.2 | 0.00 | 0.00 | 0.00 | 83 | 1015.3 |
| 20260507085857 | 45 | 82 | 1.7 | 5.2 | 0.00 | 0.00 | 0.00 | 84 | 1015.3 |
| 20260507085357 | 45 | 95 | 2.6 | 5.2 | 0.00 | 0.00 | 0.00 | 84 | 1015.3 |
| 20260507084857 | 45 | 68 | 0.9 | 4.3 | 0.00 | 0.00 | 0.00 | 84 | 1015.3 |
| 20260507082857 | 44 | 102 | 1.7 | 6.1 | 0.00 | 0.00 | 0.00 | 84 | 1015.4 |
| 20260507082357 | 44 | 81 | 2.6 | 5.2 | 0.00 | 0.00 | 0.00 | 85 | 1015.4 |
| 20260507081857 | 44 | 97 | 1.7 | 4.3 | 0.00 | 0.00 | 0.00 | 85 | 1015.4 |
| 20260507081357 | 44 | 82 | 0.9 | 2.6 | 0.00 | 0.00 | 0.00 | 85 | 1015.4 |
| 20260507075857 | 43 | 90 | 0.9 | 2.6 | 0.00 | 0.00 | 0.00 | 85 | 1015.4 |
| 20260507075356 | 43 | 90 | 0.9 | 2.6 | 0.00 | 0.00 | 0.00 | 85 | 1015.4 |
| 20260507074857 | 43 | 90 | 0.9 | 2.6 | 0.00 | 0.00 | 0.00 | 85 | 1015.4 |
| 20260507074356 | 43 | 90 | 0.9 | 4.3 | 0.00 | 0.00 | 0.00 | 85 | 1015.4 |
| 20260507073857 | 43 | 90 | 0.9 | 2.6 | 0.00 | 0.00 | 0.00 | 85 | 1015.4 |
| 20260507073356 | 43 | 90 | 1.7 | 4.3 | 0.00 | 0.00 | 0.00 | 85 | 1015.3 |
| 20260507072857 | 43 | 84 | 1.7 | 4.3 | 0.00 | 0.00 | 0.00 | 85 | 1015.2 |
| 20260507072356 | 43 | 76 | 1.7 | 5.2 | 0.00 | 0.00 | 0.00 | 85 | 1015.2 |
| 20260507071857 | 43 | 82 | 1.7 | 5.2 | 0.00 | 0.00 | 0.00 | 85 | 1015.2 |
| 20260507071356 | 43 | 74 | 1.7 | 4.3 | 0.00 | 0.00 | 0.00 | 85 | 1015.2 |
| 20260507070857 | 43 | 93 | 1.7 | 4.3 | 0.00 | 0.00 | 0.00 | 85 | 1015.2 |
| 20260507070357 | 43 | 93 | 0.9 | 2.6 | 0.00 | 0.00 | 0.00 | 84 | 1015.2 |
| 20260507065857 | 43 | 93 | 0.9 | 2.6 | 0.00 | 0.00 | 0.00 | 84 | 1015.2 |
| 20260507064857 | 43 | 93 | 0.9 | 4.3 | 0.00 | 0.00 | 0.00 | 84 | 1015.1 |
| 20260507064357 | 42 | 92 | 1.7 | 4.3 | 0.00 | 0.00 | 0.00 | 84 | 1015.1 |
| 20260507063857 | 42 | 92 | 1.7 | 4.3 | 0.00 | 0.00 | 0.00 | 84 | 1015.1 |
| 20260507063357 | 42 | 92 | 0.9 | 1.7 | 0.00 | 0.00 | 0.00 | 84 | 1015.1 |
| 20260507062857 | 42 | 92 | 0.0 | 1.7 | 0.00 | 0.00 | 0.00 | 84 | 1015.2 |
| 20260507062356 | 42 | 92 | 0.9 | 4.3 | 0.00 | 0.00 | 0.00 | 84 | 1015.1 |
| 20260507061858 | 42 | 89 | 1.7 | 4.3 | 0.00 | 0.00 | 0.00 | 84 | 1015.0 |
| 20260507061356 | 42 | 92 | 1.7 | 4.3 | 0.00 | 0.00 | 0.00 | 85 | 1015.0 |
| 20260507060859 | 42 | 68 | 0.9 | 4.3 | 0.00 | 0.00 | 0.00 | 85 | 1015.0 |
| 20260507055857 | 42 | 103 | 0.9 | 1.7 | 0.00 | 0.00 | 0.00 | 85 | 1014.9 |
| 20260507055356 | 41 | 82 | 0.0 | 1.7 | 0.00 | 0.00 | 0.00 | 85 | 1014.9 |
| 20260507054857 | 41 | 82 | 1.7 | 4.3 | 0.00 | 0.00 | 0.00 | 85 | 1014.8 |
| 20260507054356 | 41 | 83 | 0.9 | 2.6 | 0.00 | 0.00 | 0.00 | 84 | 1014.9 |
| 20260507053857 | 41 | 83 | 0.0 | 1.7 | 0.00 | 0.00 | 0.00 | 84 | 1014.9 |
| 20260507053357 | 41 | 83 | 0.0 | 1.7 | 0.00 | 0.00 | 0.00 | 84 | 1014.8 |
| 20260507052856 | 41 | 83 | 0.0 | 1.7 | 0.00 | 0.00 | 0.00 | 84 | 1014.8 |
| 20260507052357 | 41 | 83 | 0.9 | 2.6 | 0.00 | 0.00 | 0.00 | 84 | 1014.8 |
| 20260507051857 | 41 | 83 | 0.0 | 1.7 | 0.00 | 0.00 | 0.00 | 84 | 1014.8 |
| 20260507051357 | 41 | 83 | 0.9 | 2.6 | 0.00 | 0.00 | 0.00 | 84 | 1014.7 |
| 20260507050357 | 41 | 111 | 0.9 | 2.6 | 0.00 | 0.00 | 0.00 | 83 | 1014.8 |
| 20260507045858 | 41 | 111 | 0.9 | 2.6 | 0.00 | 0.00 | 0.00 | 83 | 1014.8 |
| 20260507045356 | 41 | 111 | 1.7 | 4.3 | 0.00 | 0.00 | 0.00 | 83 | 1014.8 |
| 20260507044357 | 41 | 62 | 0.9 | 1.7 | 0.00 | 0.00 | 0.00 | 83 | 1014.8 |
| 20260507043857 | 42 | 62 | 0.0 | 0.9 | 0.00 | 0.00 | 0.00 | 83 | 1014.8 |
| 20260507043357 | 42 | 62 | 0.9 | 2.6 | 0.00 | 0.00 | 0.00 | 82 | 1014.7 |
| 20260507041356 | 42 | 62 | 1.7 | 5.2 | 0.00 | 0.00 | 0.00 | 82 | 1014.7 |
| 20260507040857 | 42 | 86 | 0.9 | 5.2 | 0.00 | 0.00 | 0.00 | 81 | 1014.7 |
| 20260507040357 | 42 | 77 | 2.6 | 4.3 | 0.00 | 0.00 | 0.00 | 81 | 1014.8 |
| 20260507035858 | 42 | 82 | 1.7 | 4.3 | 0.00 | 0.00 | 0.00 | 81 | 1014.8 |
| 20260507035356 | 42 | 88 | 1.7 | 4.3 | 0.00 | 0.00 | 0.00 | 82 | 1014.7 |
| 20260507034857 | 42 | 64 | 0.9 | 0.9 | 0.00 | 0.00 | 0.00 | 82 | 1014.8 |
| 20260507034357 | 42 | 64 | 0.0 | 2.6 | 0.00 | 0.00 | 0.00 | 82 | 1014.7 |
| 20260507033857 | 42 | 83 | 0.9 | 4.3 | 0.00 | 0.00 | 0.00 | 82 | 1014.7 |
| 20260507033357 | 41 | 83 | 0.9 | 1.7 | 0.00 | 0.00 | 0.00 | 82 | 1014.7 |
| 20260507032856 | 41 | 83 | 0.0 | 1.7 | 0.00 | 0.00 | 0.00 | 82 | 1014.7 |
| 20260507032356 | 41 | 30 | 0.9 | 1.7 | 0.00 | 0.00 | 0.00 | 83 | 1014.8 |
| 20260507031856 | 41 | 30 | 0.9 | 2.6 | 0.00 | 0.00 | 0.00 | 83 | 1014.8 |
| 20260507031357 | 42 | 49 | 0.9 | 2.6 | 0.00 | 0.00 | 0.00 | 83 | 1014.8 |
| 20260507030857 | 41 | 69 | 0.9 | 1.7 | 0.00 | 0.00 | 0.00 | 83 | 1014.9 |
| 20260507030357 | 41 | 82 | 0.0 | 1.7 | 0.00 | 0.00 | 0.00 | 83 | 1014.9 |
| 20260507025857 | 42 | 10 | 0.9 | 2.6 | 0.00 | 0.00 | 0.00 | 83 | 1014.8 |
| 20260507025356 | 42 | 89 | 0.9 | 4.3 | 0.00 | 0.00 | 0.00 | 83 | 1014.9 |
| 20260507024856 | 42 | 12 | 0.0 | 2.6 | 0.00 | 0.00 | 0.00 | 83 | 1014.9 |
| 20260507024358 | 42 | 82 | 0.9 | 2.6 | 0.00 | 0.00 | 0.00 | 83 | 1015.0 |
| 20260507023357 | 42 | 8 | 1.7 | 2.6 | 0.00 | 0.00 | 0.00 | 84 | 1015.0 |
| 20260507022857 | 42 | 74 | 0.9 | 2.6 | 0.00 | 0.00 | 0.00 | 84 | 1015.0 |
| 20260507022356 | 42 | 71 | 0.9 | 2.6 | 0.00 | 0.00 | 0.00 | 83 | 1015.1 |
| 20260507021857 | 42 | 83 | 1.7 | 4.3 | 0.00 | 0.00 | 0.00 | 84 | 1015.1 |
| 20260507021356 | 42 | 89 | 0.9 | 2.6 | 0.00 | 0.00 | 0.00 | 83 | 1015.1 |
| 20260507020857 | 42 | 81 | 0.9 | 5.2 | 0.00 | 0.00 | 0.00 | 84 | 1015.1 |
| 20260507015357 | 41 | 82 | 0.9 | 2.6 | 0.00 | 0.00 | 0.00 | 84 | 1015.0 |
| 20260507014857 | 41 | 82 | 0.9 | 2.6 | 0.00 | 0.00 | 0.00 | 84 | 1015.0 |
| 20260507014357 | 41 | 69 | 0.9 | 1.7 | 0.00 | 0.00 | 0.00 | 84 | 1014.9 |
| 20260507013857 | 41 | 69 | 0.9 | 2.6 | 0.00 | 0.00 | 0.00 | 84 | 1014.9 |
| 20260507013357 | 41 | 68 | 1.7 | 4.3 | 0.00 | 0.00 | 0.00 | 85 | 1014.9 |
| 20260507012857 | 41 | 71 | 0.9 | 2.6 | 0.00 | 0.00 | 0.00 | 85 | 1015.1 |
| 20260507012356 | 41 | 71 | 0.9 | 2.6 | 0.00 | 0.00 | 0.00 | 85 | 1015.1 |
| 20260507011357 | 40 | 71 | 0.9 | 1.7 | 0.00 | 0.00 | 0.00 | 85 | 1015.2 |
| 20260507010857 | 40 | 71 | 0.9 | 2.6 | 0.00 | 0.00 | 0.00 | 85 | 1015.1 |
| 20260507010357 | 40 | 71 | 1.7 | 2.6 | 0.00 | 0.00 | 0.00 | 86 | 1015.1 |
| 20260507005857 | 40 | 71 | 1.7 | 2.6 | 0.00 | 0.00 | 0.00 | 86 | 1015.1 |
| 20260507005356 | 40 | 53 | 0.9 | 1.7 | 0.00 | 0.00 | 0.00 | 86 | 1015.2 |
| 20260507004356 | 39 | 76 | 1.7 | 4.3 | 0.00 | 0.00 | 0.00 | 85 | 1015.2 |
| 20260507003857 | 39 | 49 | 0.9 | 1.7 | 0.00 | 0.00 | 0.00 | 85 | 1015.3 |
| 20260507002856 | 39 | 73 | 1.7 | 2.6 | 0.00 | 0.00 | 0.00 | 84 | 1015.4 |
| 20260507002356 | 40 | 73 | 0.9 | 2.6 | 0.00 | 0.00 | 0.00 | 84 | 1015.4 |
| 20260507001857 | 40 | 73 | 0.9 | 2.6 | 0.00 | 0.00 | 0.00 | 84 | 1015.4 |
| 20260507001356 | 40 | 63 | 0.9 | 2.6 | 0.00 | 0.00 | 0.00 | 84 | 1015.4 |
| 20260507000358 | 40 | 80 | 0.9 | 2.6 | 0.00 | 0.00 | 0.00 | 83 | 1015.4 |
| 20260506235857 | 40 | 78 | 1.7 | 2.6 | 0.00 | 0.00 | 0.00 | 83 | 1015.3 |
| 20260506235356 | 40 | 95 | 1.7 | 4.3 | 0.00 | 0.00 | 0.00 | 83 | 1015.4 |
| 20260506234856 | 40 | 79 | 1.7 | 4.3 | 0.00 | 0.00 | 0.00 | 83 | 1015.4 |
| 20260506233357 | 41 | 70 | 1.7 | 4.3 | 0.00 | 0.00 | 0.00 | 82 | 1015.5 |
| 20260506232356 | 41 | 66 | 1.7 | 2.6 | 0.00 | 0.00 | 0.00 | 82 | 1015.4 |
| 20260506231858 | 41 | 76 | 0.9 | 1.7 | 0.00 | 0.00 | 0.00 | 82 | 1015.4 |
| 20260506231356 | 41 | 68 | 0.9 | 4.3 | 0.00 | 0.00 | 0.00 | 81 | 1015.5 |
| 20260506230356 | 41 | 83 | 2.6 | 5.2 | 0.00 | 0.00 | 0.00 | 81 | 1015.5 |
| 20260506225356 | 41 | 78 | 2.6 | 6.1 | 0.00 | 0.00 | 0.00 | 81 | 1015.5 |
| 20260506224856 | 41 | 65 | 1.7 | 2.6 | 0.00 | 0.00 | 0.00 | 81 | 1015.5 |
| 20260506223857 | 41 | 37 | 0.9 | 2.6 | 0.00 | 0.00 | 0.00 | 81 | 1015.5 |
| 20260506223357 | 42 | 74 | 0.9 | 2.6 | 0.00 | 0.00 | 0.00 | 81 | 1015.5 |
| 20260506221856 | 42 | 73 | 2.6 | 5.2 | 0.00 | 0.00 | 0.00 | 80 | 1015.4 |
| 20260506221356 | 42 | 86 | 0.9 | 4.3 | 0.00 | 0.00 | 0.00 | 80 | 1015.5 |
| 20260506220857 | 42 | 44 | 0.9 | 2.6 | 0.00 | 0.00 | 0.00 | 80 | 1015.4 |
| 20260506220356 | 42 | 82 | 1.7 | 4.3 | 0.00 | 0.00 | 0.00 | 80 | 1015.3 |
| 20260506215857 | 42 | 71 | 0.9 | 2.6 | 0.00 | 0.00 | 0.00 | 80 | 1015.3 |
| 20260506215356 | 42 | 58 | 0.9 | 2.6 | 0.00 | 0.00 | 0.00 | 80 | 1015.2 |
| 20260506214857 | 42 | 43 | 1.7 | 5.2 | 0.00 | 0.00 | 0.00 | 80 | 1015.2 |
| 20260506214357 | 43 | 68 | 1.7 | 2.6 | 0.00 | 0.00 | 0.00 | 79 | 1015.2 |
| 20260506213856 | 43 | 19 | 1.7 | 4.3 | 0.00 | 0.00 | 0.00 | 79 | 1015.2 |
| 20260506213356 | 43 | 97 | 0.9 | 2.6 | 0.00 | 0.00 | 0.00 | 79 | 1015.2 |
| 20260506212857 | 43 | 94 | 0.9 | 2.6 | 0.00 | 0.00 | 0.00 | 79 | 1015.2 |
| 20260506212356 | 43 | 33 | 0.9 | 2.6 | 0.00 | 0.00 | 0.00 | 78 | 1015.2 |
| 20260506211857 | 43 | 80 | 0.9 | 2.6 | 0.00 | 0.00 | 0.00 | 78 | 1015.2 |
| 20260506211356 | 43 | 9 | 0.9 | 2.6 | 0.00 | 0.00 | 0.00 | 78 | 1015.2 |
| 20260506210856 | 44 | 35 | 0.9 | 1.7 | 0.00 | 0.00 | 0.00 | 78 | 1015.3 |
| 20260506210356 | 44 | 10 | 0.9 | 2.6 | 0.00 | 0.00 | 0.00 | 77 | 1015.3 |
| 20260506205857 | 44 | 18 | 0.9 | 1.7 | 0.00 | 0.00 | 0.00 | 77 | 1015.3 |
| 20260506205356 | 44 | 50 | 0.9 | 2.6 | 0.00 | 0.00 | 0.00 | 77 | 1015.3 |
| 20260506204857 | 44 | 96 | 0.0 | 1.7 | 0.00 | 0.00 | 0.00 | 77 | 1015.3 |
| 20260506204357 | 44 | 124 | 0.0 | 4.3 | 0.00 | 0.00 | 0.00 | 77 | 1015.2 |
| 20260506203856 | 44 | 91 | 0.0 | 2.6 | 0.00 | 0.00 | 0.00 | 77 | 1015.2 |
| 20260506202857 | 44 | 28 | 0.9 | 2.6 | 0.00 | 0.00 | 0.00 | 76 | 1015.1 |
| 20260506202356 | 44 | 343 | 0.9 | 2.6 | 0.00 | 0.00 | 0.00 | 76 | 1015.1 |
| 20260506201857 | 45 | 6 | 0.9 | 2.6 | 0.00 | 0.00 | 0.00 | 75 | 1015.0 |
| 20260506200856 | 45 | 42 | 0.9 | 2.6 | 0.00 | 0.00 | 0.00 | 74 | 1014.9 |
| 20260506200356 | 45 | 71 | 0.9 | 1.7 | 0.00 | 0.00 | 0.00 | 73 | 1014.9 |
| 20260506195356 | 46 | 58 | 0.9 | 2.6 | 0.00 | 0.00 | 0.00 | 71 | 1014.8 |
| 20260506194857 | 47 | 88 | 1.7 | 6.1 | 0.00 | 0.00 | 0.00 | 71 | 1014.7 |
| 20260506193857 | 47 | 92 | 1.7 | 7.0 | 0.00 | 0.00 | 0.00 | 69 | 1014.7 |
| 20260506193356 | 47 | 95 | 2.6 | 7.0 | 0.00 | 0.00 | 0.00 | 69 | 1014.6 |
| 20260506192857 | 47 | 86 | 2.6 | 7.8 | 0.00 | 0.00 | 0.00 | 69 | 1014.6 |
| 20260506192356 | 48 | 94 | 0.9 | 5.2 | 0.00 | 0.00 | 0.00 | 69 | 1014.5 |
| 20260506191857 | 48 | 77 | 0.9 | 2.6 | 0.00 | 0.00 | 0.00 | 69 | 1014.5 |
| 20260506191356 | 48 | 86 | 0.0 | 1.7 | 0.00 | 0.00 | 0.00 | 68 | 1014.5 |
| 20260506190357 | 48 | 95 | 0.9 | 5.2 | 0.00 | 0.00 | 0.00 | 67 | 1014.4 |
| 20260506185857 | 48 | 97 | 1.7 | 5.2 | 0.00 | 0.00 | 0.00 | 66 | 1014.4 |
| 20260506185356 | 49 | 88 | 1.7 | 5.2 | 0.00 | 0.00 | 0.00 | 66 | 1014.5 |
| 20260506184857 | 49 | 97 | 2.6 | 6.1 | 0.00 | 0.00 | 0.00 | 66 | 1014.4 |
| 20260506184355 | 49 | 91 | 3.5 | 7.0 | 0.00 | 0.00 | 0.00 | 66 | 1014.4 |
| 20260506182856 | 49 | 89 | 1.7 | 7.0 | 0.00 | 0.00 | 0.00 | 64 | 1014.3 |
| 20260506182356 | 50 | 89 | 4.3 | 7.0 | 0.00 | 0.00 | 0.00 | 64 | 1014.4 |
| 20260506181856 | 50 | 86 | 3.5 | 7.8 | 0.00 | 0.00 | 0.00 | 64 | 1014.3 |
| 20260506180356 | 50 | 96 | 2.6 | 7.0 | 0.00 | 0.00 | 0.00 | 63 | 1014.2 |
| 20260506175858 | 50 | 98 | 4.3 | 8.7 | 0.00 | 0.00 | 0.00 | 62 | 1014.3 |
| 20260506175356 | 51 | 97 | 1.7 | 5.2 | 0.00 | 0.00 | 0.00 | 62 | 1014.3 |
| 20260506174857 | 51 | 97 | 2.6 | 7.8 | 0.00 | 0.00 | 0.00 | 63 | 1014.2 |
| 20260506173856 | 51 | 92 | 4.3 | 7.8 | 0.00 | 0.00 | 0.00 | 62 | 1014.2 |
| 20260506173356 | 51 | 84 | 4.3 | 10.4 | 0.00 | 0.00 | 0.00 | 62 | 1014.1 |
| 20260506172857 | 52 | 92 | 1.7 | 6.1 | 0.00 | 0.00 | 0.00 | 62 | 1014.1 |
| 20260506172357 | 52 | 97 | 3.5 | 8.7 | 0.00 | 0.00 | 0.00 | 62 | 1014.2 |
| 20260506171857 | 51 | 90 | 2.6 | 7.0 | 0.00 | 0.00 | 0.00 | 62 | 1014.2 |
| 20260506170857 | 51 | 88 | 2.6 | 7.0 | 0.00 | 0.00 | 0.00 | 62 | 1014.2 |
| 20260506170356 | 51 | 102 | 1.7 | 5.2 | 0.00 | 0.00 | 0.00 | 62 | 1014.2 |
| 20260506165856 | 51 | 87 | 1.7 | 4.3 | 0.00 | 0.00 | 0.00 | 62 | 1014.3 |
| 20260506165356 | 50 | 90 | 0.9 | 5.2 | 0.00 | 0.00 | 0.00 | 62 | 1014.3 |
| 20260506164356 | 50 | 99 | 2.6 | 6.1 | 0.00 | 0.00 | 0.00 | 59 | 1014.4 |
| 20260506163856 | 50 | 102 | 1.7 | 6.1 | 0.00 | 0.00 | 0.00 | 59 | 1014.4 |
| 20260506163356 | 50 | 93 | 2.6 | 5.2 | 0.00 | 0.00 | 0.00 | 57 | 1014.4 |
| 20260506162856 | 50 | 88 | 1.7 | 5.2 | 0.00 | 0.00 | 0.00 | 58 | 1014.4 |
| 20260506162355 | 50 | 88 | 0.9 | 2.6 | 0.00 | 0.00 | 0.00 | 58 | 1014.5 |
| 20260506161356 | 51 | 101 | 1.7 | 4.3 | 0.00 | 0.00 | 0.00 | 57 | 1014.5 |
| 20260506160356 | 51 | 90 | 1.7 | 5.2 | 0.00 | 0.00 | 0.00 | 58 | 1014.5 |
| 20260506155856 | 51 | 93 | 3.5 | 7.0 | 0.00 | 0.00 | 0.00 | 58 | 1014.5 |
| 20260506155356 | 51 | 92 | 2.6 | 5.2 | 0.00 | 0.00 | 0.00 | 57 | 1014.4 |
| 20260506154856 | 51 | 92 | 2.6 | 5.2 | 0.00 | 0.00 | 0.00 | 57 | 1014.4 |
| 20260506154356 | 51 | 94 | 2.6 | 4.3 | 0.00 | 0.00 | 0.00 | 55 | 1014.4 |
| 20260506153856 | 51 | 96 | 1.7 | 6.1 | 0.00 | 0.00 | 0.00 | 56 | 1014.4 |
| 20260506151856 | 51 | 97 | 2.6 | 6.1 | 0.00 | 0.00 | 0.00 | 54 | 1014.5 |
| 20260506151355 | 51 | 91 | 0.9 | 4.3 | 0.00 | 0.00 | 0.00 | 56 | 1014.6 |
| 20260506150857 | 51 | 99 | 2.6 | 4.3 | 0.00 | 0.00 | 0.00 | 54 | 1014.6 |
| 20260506145856 | 51 | 96 | 0.9 | 4.3 | 0.00 | 0.00 | 0.00 | 56 | 1014.6 |
| 20260506145356 | 51 | 95 | 2.6 | 5.2 | 0.00 | 0.00 | 0.00 | 56 | 1014.6 |
| 20260506144357 | 51 | 92 | 2.6 | 7.0 | 0.00 | 0.00 | 0.00 | 54 | 1014.7 |
| 20260506143356 | 51 | 40 | 0.0 | 1.7 | 0.00 | 0.00 | 0.00 | 55 | 1014.6 |
| 20260506142856 | 51 | 61 | 0.9 | 2.6 | 0.00 | 0.00 | 0.00 | 56 | 1014.6 |
| 20260506142356 | 51 | 61 | 0.9 | 4.3 | 0.00 | 0.00 | 0.00 | 56 | 1014.6 |
| 20260506141856 | 51 | 113 | 0.9 | 5.2 | 0.00 | 0.00 | 0.00 | 54 | 1014.6 |
| 20260506141356 | 52 | 88 | 1.7 | 4.3 | 0.00 | 0.00 | 0.00 | 54 | 1014.7 |
| 20260506140856 | 52 | 359 | 1.7 | 7.0 | 0.00 | 0.00 | 0.00 | 55 | 1014.7 |
| 20260506140356 | 52 | 21 | 2.6 | 6.1 | 0.00 | 0.00 | 0.00 | 54 | 1014.7 |
| 20260506135856 | 52 | 59 | 2.6 | 5.2 | 0.00 | 0.00 | 0.00 | 54 | 1014.7 |
| 20260506135357 | 52 | 80 | 3.5 | 7.0 | 0.00 | 0.00 | 0.00 | 53 | 1014.7 |
| 20260506134856 | 51 | 137 | 1.7 | 4.3 | 0.00 | 0.00 | 0.00 | 51 | 1014.7 |
| 20260506134356 | 51 | 78 | 1.7 | 5.2 | 0.00 | 0.00 | 0.00 | 52 | 1014.7 |
| 20260506133356 | 51 | 84 | 1.7 | 7.8 | 0.00 | 0.00 | 0.00 | 55 | 1014.8 |
| 20260506132856 | 51 | 93 | 2.6 | 6.1 | 0.00 | 0.00 | 0.00 | 56 | 1014.8 |
| 20260506132356 | 51 | 82 | 1.7 | 4.3 | 0.00 | 0.00 | 0.00 | 56 | 1014.8 |
| 20260506131856 | 51 | 95 | 2.6 | 7.0 | 0.00 | 0.00 | 0.00 | 56 | 1014.8 |
| 20260506130357 | 52 | 74 | 1.7 | 7.0 | 0.00 | 0.00 | 0.00 | 55 | 1014.9 |
| 20260506125856 | 53 | 110 | 4.3 | 7.8 | 0.00 | 0.00 | 0.00 | 52 | 1014.8 |
| 20260506124856 | 52 | 273 | 0.9 | 5.2 | 0.00 | 0.00 | 0.00 | 52 | 1014.7 |
| 20260506124356 | 52 | 115 | 2.6 | 5.2 | 0.00 | 0.00 | 0.00 | 50 | 1014.8 |
| 20260506123856 | 52 | 89 | 2.6 | 5.2 | 0.00 | 0.00 | 0.00 | 50 | 1014.8 |
| 20260506123356 | 53 | 47 | 1.7 | 4.3 | 0.00 | 0.00 | 0.00 | 52 | 1014.8 |
| 20260506122856 | 53 | 104 | 1.7 | 5.2 | 0.00 | 0.00 | 0.00 | 50 | 1014.8 |